IRIDIUM 106 1 41917U 17003A 26127.83905447 .00000003 00000+0 -58805-5 0 9995 2 41917 86.3935 105.4256 0002371 78.8386 281.3076 14.34217333487427 IRIDIUM 103 1 41918U 17003B 26127.68683250 .00000005 00000+0 -53891-5 0 9996 2 41918 86.3935 105.3891 0002359 93.3502 266.7964 14.34217307487424 IRIDIUM 109 1 41919U 17003C 26127.69317466 .00000180 00000+0 57131-4 0 9994 2 41919 86.3934 105.4453 0002323 88.8640 271.2822 14.34218152487391 IRIDIUM 102 1 41920U 17003D 26127.45215500 .00000089 00000+0 24837-4 0 9991 2 41920 86.3930 105.4704 0002219 86.3844 273.7605 14.34217431487442 IRIDIUM 105 1 41921U 17003E 26127.82937316 .00000236 00000+0 77187-4 0 9999 2 41921 86.3955 73.7397 0002195 92.3451 267.7996 14.34211582489358 IRIDIUM 104 1 41922U 17003F 26127.46483824 .00000189 00000+0 60408-4 0 9995 2 41922 86.3933 105.5070 0002310 94.7359 265.4100 14.34216954487436 IRIDIUM 114 1 41923U 17003G 26127.88979470 .00000171 00000+0 54134-4 0 9999 2 41923 86.3933 105.3127 0002344 91.9939 268.1525 14.34218362487478 IRIDIUM 108 1 41924U 17003H 26127.84831588 .00000032 00000+0 43199-5 0 9999 2 41924 86.3950 73.6243 0002169 84.0547 276.0896 14.34217709489326 IRIDIUM 112 1 41925U 17003J 26127.38872831 .00000264 00000+0 87091-4 0 9990 2 41925 86.3928 105.3663 0002248 90.4238 269.7216 14.34217571487428 IRIDIUM 111 1 41926U 17003K 26127.44581201 -.00000095 00000+0 -40958-4 0 9991 2 41926 86.3933 105.4122 0002255 88.4326 271.7129 14.34216561487412 IRIDIUM 113 1 42803U 17039A 26127.70485090 .00000159 00000+0 49814-4 0 9992 2 42803 86.3977 339.1076 0002185 92.4846 267.6600 14.34217180465381 IRIDIUM 123 1 42804U 17039B 26127.74633052 -.00000008 00000+0 -98127-5 0 9997 2 42804 86.4003 10.5402 0002235 84.7570 275.3881 14.34217508464155 IRIDIUM 120 1 42805U 17039C 26127.69850906 .00000009 00000+0 -38494-5 0 9992 2 42805 86.3962 338.8980 0002029 82.7524 277.3903 14.34217498465374 IRIDIUM 115 1 42806U 17039D 26127.56002854 .00000277 00000+0 76217-4 0 9990 2 42806 86.4501 339.0792 0002422 83.3403 276.8073 14.43282849468400 IRIDIUM 118 1 42807U 17039E 26127.63850603 .00000055 00000+0 12557-4 0 9993 2 42807 86.4003 10.5837 0002196 86.3644 273.7803 14.34217796464139 IRIDIUM 117 1 42808U 17039F 26127.58776580 .00000002 00000+0 -62254-5 0 9992 2 42808 86.4000 10.5626 0002186 85.4428 274.7017 14.34217521464158 IRIDIUM 126 1 42809U 17039G 26127.75267332 -.00000002 00000+0 -78139-5 0 9992 2 42809 86.4000 10.5441 0002166 89.0348 271.1096 14.34217519464158 IRIDIUM 124 1 42810U 17039H 26127.77119148 .00000094 00000+0 21855-4 0 9998 2 42810 86.4454 307.2696 0002240 89.8174 270.3284 14.43283297469284 IRIDIUM 128 1 42811U 17039J 26127.81318001 .00000075 00000+0 19682-4 0 9997 2 42811 86.3994 42.0232 0002332 79.2384 280.9074 14.34217893464199 IRIDIUM 121 1 42812U 17039K 26127.63216289 .00000242 00000+0 79505-4 0 9999 2 42812 86.4003 10.6223 0002179 83.6934 276.4510 14.34216787464019 IRIDIUM 133 1 42955U 17061A 26127.84489250 .00000029 00000+0 32384-5 0 9993 2 42955 86.3995 42.1267 0002271 84.8114 275.3341 14.34217856448997 IRIDIUM 100 1 42956U 17061B 26127.83854977 .00000006 00000+0 -49833-5 0 9998 2 42956 86.3990 42.0488 0002136 83.5728 276.5711 14.34217625448992 IRIDIUM 122 1 42957U 17061C 26127.80683721 .00000008 00000+0 -42589-5 0 9996 2 42957 86.3993 42.0623 0002182 85.7062 274.4383 14.34217638448999 IRIDIUM 129 1 42958U 17061D 26127.83220679 .00000001 00000+0 -68568-5 0 9997 2 42958 86.3991 42.1181 0001950 91.2215 268.9204 14.34217630449018 IRIDIUM 119 1 42959U 17061E 26127.80049441 .00000032 00000+0 42251-5 0 9995 2 42959 86.3995 42.1273 0002262 87.6670 272.4785 14.34217852449027 IRIDIUM 107 1 42960U 17061F 26127.81952250 .00000010 00000+0 -34474-5 0 9994 2 42960 86.3993 42.1402 0002381 83.2747 276.8720 14.34217687449034 IRIDIUM 132 1 42961U 17061G 26127.82586426 .00000033 00000+0 47290-5 0 9998 2 42961 86.3991 42.1172 0002273 84.6669 275.4786 14.34217987449035 IRIDIUM 136 1 42962U 17061H 26127.78780161 .00000237 00000+0 77604-4 0 9993 2 42962 86.3991 42.1400 0002381 85.7240 274.4228 14.34215981449040 IRIDIUM 139 1 42963U 17061J 26127.79415214 .00000192 00000+0 61504-4 0 9991 2 42963 86.3994 42.1984 0002302 81.9357 278.2100 14.34217830449058 IRIDIUM 125 1 42964U 17061K 26127.78146714 -.00000017 00000+0 -13186-4 0 9998 2 42964 86.3996 42.2639 0002564 92.6711 267.4779 14.34218173449066 IRIDIUM 135 1 43070U 17083A 26127.68582358 .00000002 00000+0 -62336-5 0 9993 2 43070 86.3967 338.9548 0002045 87.1226 273.0204 14.34217597438345 IRIDIUM 138 1 43071U 17083B 26127.85073139 .00000008 00000+0 -42683-5 0 9994 2 43071 86.3980 338.5751 0002107 95.6113 264.5323 14.34217537438353 IRIDIUM 116 1 43072U 17083C 26127.53995885 .00000198 00000+0 63560-4 0 9996 2 43072 86.3970 339.0025 0002191 78.0811 282.0631 14.34220174438343 IRIDIUM 130 1 43073U 17083D 26127.57800003 .00000016 00000+0 -14995-5 0 9997 2 43073 86.3978 339.2577 0002344 82.8155 277.3307 14.34217738438293 IRIDIUM 151 1 43074U 17083E 26127.55262897 .00000177 00000+0 56176-4 0 9992 2 43074 86.3973 339.0540 0002145 85.8324 274.3117 14.34218225438318 IRIDIUM 134 1 43075U 17083F 26127.59068530 -.00000006 00000+0 -91144-5 0 9993 2 43075 86.3970 339.0454 0002154 85.6621 274.4821 14.34217398438287 IRIDIUM 137 1 43076U 17083G 26127.53359970 .00000056 00000+0 12894-4 0 9996 2 43076 86.3974 339.1613 0001828 77.2251 282.9149 14.34218205438345 IRIDIUM 141 1 43077U 17083H 26127.87610116 .00000059 00000+0 13886-4 0 9991 2 43077 86.3970 338.8511 0002129 89.9180 270.2259 14.34217941438394 IRIDIUM 153 1 43078U 17083J 26127.75851096 .00000020 00000+0 23904-6 0 9995 2 43078 86.3932 307.3853 0002275 94.6009 265.5446 14.34217767439480 IRIDIUM 131 1 43079U 17083K 26127.86341601 .00000020 00000+0 -58199-8 0 9991 2 43079 86.3976 339.0396 0002109 88.3699 271.7739 14.34217738438328 IRIDIUM 144 1 43249U 18030A 26127.55554941 .00000063 00000+0 15485-4 0 9995 2 43249 86.3930 307.3998 0002180 86.9024 273.2422 14.34217738424318 IRIDIUM 149 1 43250U 18030B 26127.77119613 .00000042 00000+0 78400-5 0 9998 2 43250 86.3930 307.2775 0002139 92.2248 267.9192 14.34218440424364 IRIDIUM 157 1 43251U 18030C 26127.79022365 .00000049 00000+0 10292-4 0 9999 2 43251 86.3931 307.3218 0002163 89.8313 270.3130 14.34217951424345 IRIDIUM 140 1 43252U 18030D 26127.73948475 .00000065 00000+0 16172-4 0 9994 2 43252 86.3932 307.3557 0002217 89.4465 270.6985 14.34217520424395 IRIDIUM 145 1 43253U 18030E 26127.72679822 -.00000016 00000+0 -12878-4 0 9998 2 43253 86.3928 307.3334 0002068 80.9882 279.1548 14.34217380424323 IRIDIUM 146 1 43254U 18030F 26127.77753837 .00000013 00000+0 -24383-5 0 9994 2 43254 86.3927 307.3245 0002032 86.5594 273.5834 14.34217673424340 IRIDIUM 148 1 43255U 18030G 26127.74583973 .00000060 00000+0 14287-4 0 9996 2 43255 86.3933 307.3803 0002029 89.2349 270.9080 14.34218852424379 IRIDIUM 142 1 43256U 18030H 26127.78389706 .00000061 00000+0 14798-4 0 9997 2 43256 86.3930 307.2548 0002155 84.3306 275.8136 14.34218644424343 IRIDIUM 150 1 43257U 18030J 26127.75216882 .00000054 00000+0 12235-4 0 9995 2 43257 86.3933 307.3832 0002192 88.9209 271.2238 14.34217805424360 IRIDIUM 143 1 43258U 18030K 26127.73313949 .00000045 00000+0 89506-5 0 9992 2 43258 86.3936 307.4821 0002195 85.9878 274.1569 14.34218245424295 IRIDIUM 161 1 43478U 18047C 26127.67978304 .00000244 00000+0 66575-4 0 9990 2 43478 86.4452 105.4097 0002172 93.4801 266.6648 14.43281609419291 IRIDIUM 152 1 43479U 18047D 26127.84539631 .00000165 00000+0 51819-4 0 9993 2 43479 86.3927 105.2013 0002275 91.0069 269.1388 14.34217527416708 IRIDIUM 147 1 43480U 18047E 26127.85173698 .00000153 00000+0 47633-4 0 9999 2 43480 86.3928 105.2029 0002287 83.9103 276.2353 14.34216990416704 IRIDIUM 110 1 43481U 18047F 26127.85808168 .00000045 00000+0 89079-5 0 9998 2 43481 86.3928 105.2909 0002166 97.4556 262.6886 14.34217583416697 IRIDIUM 162 1 43482U 18047G 26127.46548824 .00000279 00000+0 76932-4 0 9998 2 43482 86.4450 105.3908 0002480 89.3450 270.8035 14.43281106419255 IRIDIUM 160 1 43569U 18061A 26127.80391481 .00000201 00000+0 64860-4 0 9995 2 43569 86.3956 73.6784 0002255 88.2345 271.9109 14.34215889407583 IRIDIUM 166 1 43570U 18061B 26127.82928468 .00000156 00000+0 48628-4 0 9993 2 43570 86.3955 73.6191 0002278 82.0863 278.0591 14.34222285407613 IRIDIUM 158 1 43571U 18061C 26127.79757551 .00000035 00000+0 54021-5 0 9994 2 43571 86.3952 73.6422 0002369 87.5488 272.5979 14.34217706407578 IRIDIUM 165 1 43572U 18061D 26127.82294552 -.00000010 00000+0 -10488-4 0 9999 2 43572 86.3956 73.6774 0002155 81.4861 278.6579 14.34217435407600 IRIDIUM 155 1 43573U 18061E 26127.85465883 .00000012 00000+0 -27922-5 0 9993 2 43573 86.3952 73.5350 0002292 85.1077 275.0380 14.34217587407573 IRIDIUM 154 1 43574U 18061F 26127.83563057 .00000060 00000+0 14312-4 0 9994 2 43574 86.3956 73.6745 0002206 81.4252 278.7193 14.34217841407627 IRIDIUM 163 1 43575U 18061G 26127.81660306 .00000090 00000+0 25075-4 0 9999 2 43575 86.3953 73.5990 0002272 88.2426 271.9030 14.34217787407597 IRIDIUM 156 1 43576U 18061H 26127.37261767 .00000176 00000+0 55855-4 0 9993 2 43576 86.3953 73.7920 0002408 83.6751 276.4719 14.34219634407524 IRIDIUM 164 1 43577U 18061J 26127.84197742 .00000056 00000+0 13056-4 0 9991 2 43577 86.3953 73.6355 0002160 80.9204 279.2236 14.34214811407633 IRIDIUM 159 1 43578U 18061K 26127.81026024 .00000000 00000+0 -69438-5 0 9999 2 43578 86.3953 73.5865 0002093 87.9763 272.1673 14.34217569407596 IRIDIUM 180 1 43922U 19002A 26127.73998708 .00000037 00000+0 62725-5 0 9997 2 43922 86.4002 10.5036 0002100 87.7465 272.3971 14.34217913383197 IRIDIUM 176 1 43923U 19002B 26127.65023834 .00000640 00000+0 97529-4 0 9997 2 43923 86.6122 10.4906 0002293 80.8626 279.2851 14.72256429393285 IRIDIUM 168 1 43924U 19002C 26127.80341316 .00000054 00000+0 12338-4 0 9997 2 43924 86.4008 10.5533 0002208 85.2708 274.8740 14.34217912383188 IRIDIUM 173 1 43925U 19002D 26127.65119172 .00000005 00000+0 -53680-5 0 9997 2 43925 86.4001 10.5072 0002168 87.3616 272.7828 14.34217579383145 IRIDIUM 169 1 43926U 19002E 26127.84034159 .00000270 00000+0 81781-4 0 9995 2 43926 86.4248 42.0543 0002897 85.4407 274.7122 14.38607099384423 IRIDIUM 172 1 43927U 19002F 26127.64484778 .00000074 00000+0 19227-4 0 9998 2 43927 86.4003 10.5180 0002103 87.2671 272.8766 14.34217348383155 IRIDIUM 175 1 43928U 19002G 26127.58768404 .00000087 00000+0 19620-4 0 9994 2 43928 86.4485 307.5032 0003821 33.3712 326.7729 14.43592242393126 IRIDIUM 171 1 43929U 19002H 26127.76535811 .00000006 00000+0 -48144-5 0 9995 2 43929 86.4009 10.7689 0002106 81.8242 278.3193 14.34217613383167 IRIDIUM 170 1 43930U 19002J 26127.18064211 .00000660 00000+0 10073-3 0 9997 2 43930 86.6124 10.6895 0002289 87.8791 272.2688 14.72254304393224 IRIDIUM 167 1 43931U 19002K 26127.75901580 .00000018 00000+0 -58109-6 0 9993 2 43931 86.3999 10.4920 0002292 78.2431 281.9022 14.34217665383166 IRIDIUM 181 1 56726U 23068S 26127.82607970 .00000269 00000+0 73805-4 0 9995 2 56726 86.4492 73.6583 0002061 83.6549 276.4887 14.43309258156617 IRIDIUM 177 1 56727U 23068T 26127.89681501 .00000841 00000+0 10717-3 0 9993 2 56727 86.1980 347.9317 0002553 91.2341 268.9173 14.80221299160405 IRIDIUM 174 1 56728U 23068U 26127.16828311 .00000506 00000+0 76366-4 0 9997 2 56728 86.6131 10.8381 0002510 89.4449 270.7056 14.72246177159982 IRIDIUM 178 1 56729U 23068V 26127.81832225 .00001086 00000+0 13954-3 0 9996 2 56729 86.6561 42.2240 0002337 83.3372 276.8116 14.80226357160396 IRIDIUM 179 1 56730U 23068W 26127.81294730 .00001016 00000+0 13032-3 0 9991 2 56730 86.6793 51.0860 0002644 80.2995 279.8525 14.80232094160391